Location: Unsp...
(0.0000°N, 0.0000°E)
Time: 09:22:39
(UTC+02:00)

Daily predictions for brighter satellites

Satellite Brightness Start Highest point End
(mag) Time Altitude Azimuth Time Altitude Azimuth Time Altitude Azimuth
CZ-3B Rocket 4.2 20:09:23 10° WNW 20:15:12 66° NNE 20:55:41 13° ESE
CZ-3B Rocket 4.2 20:09:23 10° WNW 20:15:12 66° NNE 20:55:43 13° ESE
Cosmos 1484 Rocket 4.2 20:21:19 10° S 20:24:56 42° W 20:28:36 10° NNW
SeaSat 1 2.9 20:23:23 10° NE 20:27:58 40° ESE 20:32:34 10° S
Nadezhda 4 Rocket 4.3 20:24:03 10° S 20:30:13 74° W 20:36:18 10° N
Meteor 1-25 Rocket 4.4 20:24:50 10° S 20:30:33 58° E 20:36:16 10° NNE
ALOS 3.2 20:27:55 10° SE 20:31:50 27° ENE 20:35:43 10° NNE
Cosmos 1674 Rocket 4.2 20:29:02 10° NNE 20:33:01 34° E 20:37:02 10° SSE
CZ-4 R/B 3.5 20:30:11 10° SSW 20:33:34 29° WSW 20:36:55 10° NW
Meteor 1-14 Rocket 4.3 20:28:23 10° S 20:34:15 87° E 20:39:56 10° N
Cosmos 2219 3.8 20:36:43 10° NNW 20:42:20 60° WSW 20:47:55 10° S
ATLAS 2AS CENTAUR R/B 3.0 20:36:30 10° S 20:43:01 49° ESE 20:50:10 10° NE
METEOR-M 4.1 20:39:57 10° SSE 20:45:18 81° ENE 20:50:37 10° N
Okean 3 4.4 20:41:55 10° NNE 20:45:35 28° E 20:49:17 10° SE
Ariane H10 2.9 20:38:26 10° W 20:45:56 59° S 20:48:08 16° ESE
Cosmos 2297 Rocket 3.0 20:45:45 10° NNE 20:50:36 30° ENE 20:54:47 13° SE
Cosmos 2322 Rocket 2.2 20:46:57 10° S 20:52:33 59° ESE 20:58:08 10° NNE
FENGYUN 3A 3.9 20:47:47 10° SSE 20:52:58 48° ENE 20:58:07 10° N
Okean 2 Rocket 3.1 20:48:49 10° S 20:53:11 57° E 20:57:34 10° NNE
Cosmos 1092 Rocket 4.4 20:48:41 10° SSW 20:54:46 66° W 21:00:49 10° N
NOSS 2-3 (E) 4.0 20:50:57 10° SSW 20:55:44 70° WNW 21:00:14 10° NNE
ISS -2.5 20:53:38 10° N 20:56:17 23° NE 20:57:04 21° ENE
Cosmos 1437 3.8 20:58:16 10° NNW 21:01:23 46° W 21:04:31 10° S
Cosmos 1602 4.4 20:58:26 10° SSE 21:01:53 31° E 21:05:19 10° NNE
Ariane H10 2.7 21:00:10 10° W 21:02:58 82° S 21:08:15 18° E
SL-16 R/B 2.1 20:57:24 10° SSW 21:03:04 78° ESE 21:08:43 10° NNE
Ariane H10+ 3.5 21:01:13 10° SW 21:03:16 20° S 21:04:00 18° SSE
SJ-6B 3.4 21:05:25 25° ESE 21:06:54 35° ENE 21:10:32 10° NNE
Ariane H10+ 4.1 20:37:45 10° W 21:09:58 68° N 21:16:02 21° ENE
Cosmos 1812 3.3 21:08:18 10° NNE 21:11:48 33° E 21:11:48 33° E
ARIANE 5 DEB (SYLDA) 2.9 21:10:59 10° WSW 21:13:21 39° S 21:13:21 39° S
Ariane H10-3 3.0 21:13:39 10° WSW 21:16:07 52° S 21:17:20 35° ESE
Cosmos 1420 Rocket 4.5 21:14:17 10° SSW 21:19:25 62° WNW 21:24:30 10° N
FengYun 1-2 T 4.3 21:14:11 11° SSE 21:19:30 57° ENE 21:25:00 10° N
ARIANE 5 R/B 1.8 21:19:25 10° W 21:20:37 34° WSW 21:20:37 34° WSW
ARIANE 5 DEB (SYLDA) 2.3 21:19:34 10° WNW 21:21:05 49° NNW 21:21:05 49° NNW
Genesis I 3.4 21:20:55 10° NNW 21:24:51 69° WSW 21:26:37 31° S
Cosmos 2360 Rocket 2.5 21:21:31 10° S 21:26:48 41° ESE 21:32:02 10° NE
FREGAT/IRIS 3.5 21:27:18 28° SSW 21:28:30 47° W 21:31:24 10° NNW
ARIANE 5 R/B 3.2 21:11:22 10° W 21:32:38 80° S 21:33:58 49° ESE
Ariane 5 R/B 4.3 21:27:25 10° WNW 21:35:23 47° N 21:36:49 34° NE
Abrixas 4.5 21:33:36 10° WSW 21:35:27 25° WNW 21:35:27 25° WNW
Mugunghwa Rocket 4.4 21:33:02 10° WNW 21:39:09 53° SSW 21:41:27 36° SSE
Cosmos 2082 3.8 21:34:29 10° NNW 21:40:09 74° WSW 21:43:40 24° S
Resurs 01 Rocket 3.5 21:44:26 20° NNE 21:44:26 20° NNE 21:45:54 10° N
Cosmos 2227 Rocket 3.0 21:39:11 10° NNW 21:44:38 50° WSW 21:49:28 13° S
Cosmos 1461 3.7 21:47:29 10° NNW 21:50:58 50° N 21:50:58 50° N
Cosmos 405 Rocket 4.1 21:49:39 10° NNW 21:53:21 39° W 21:54:12 35° SW
USA 267 4.3 22:10:40 31° NNE 22:10:40 31° NNE 22:14:42 10° N
CZ-4C R/B 2.9 22:03:41 10° NNW 22:11:43 79° ENE 22:12:13 76° ESE
FALCON 9 R/B 3.4 22:10:16 10° W 22:12:23 27° NW 22:12:23 27° NW
IUS-18 SRM-1 4.2 22:00:42 10° WNW 22:31:27 85° SSW 22:31:34 84° SSW
Centaur D AC-29 4.0 12:49:28 10° W 22:41:04 36° NW 22:44:46 25° N
